SV2BZQ-2 Thessalonik GR current weather conditions

sailwx.info

Wind from 317 at 5 knots gusting 10

Air temperature 8.9° C
Dewpoint 5.8° C

Last reported at 2015-Jan-28 11:44 UTC.
Time now 2015-Jan-28 12:12 UTC

Location: N 40°41' E 022°51'.
View on Google Maps.

See reports from other nearby stations

  
Tides and Currents Weather Stations Pressure Air Temp Water Temp Dewpoint Dewpoint Depression Visibility Wind Speed Wind Dir Waves Ship Positions
date/time (UTC)wind fromknots sea level pressurealtimeterstation pressurevisibilityair tempwater tempwave heightnotes
2015-Jan-28 11:44 317 5 gusting 10 8.9
2015-Jan-28 11:33 293 6 gusting 4 8.9
2015-Jan-28 11:27 319 5 gusting 11 8.3
2015-Jan-28 11:23 309 4 gusting 6 8.9
2015-Jan-28 11:13 331 5 gusting 7 8.3
2015-Jan-28 11:03 327 4 gusting 2 8.3
2015-Jan-28 10:55 311 4 gusting 8 8.3
2015-Jan-28 10:43 336 4 gusting 2 8.3
2015-Jan-28 10:41 287 1 gusting 8 8.3
2015-Jan-28 10:33 295 2 gusting 6 8.3
2015-Jan-28 10:25 298 3 gusting 6 7.8
2015-Jan-28 10:13 295 2 gusting 4 8.3
2015-Jan-28 10:10 305 2 gusting 8 7.8
2015-Jan-28 10:03 274 4 gusting 2 7.8
2015-Jan-28 09:54 326 3 gusting 8 7.8
2015-Jan-28 09:43 302 4 gusting 6 7.8
2015-Jan-28 09:39 311 5 gusting 8 7.2
2015-Jan-28 09:33 290 2 gusting 6 7.8
2015-Jan-28 09:25 273 2 gusting 6 7.2
2015-Jan-28 09:13 324 2 gusting 7 7.2
2015-Jan-28 09:10 321 2 gusting 7 7.2
2015-Jan-28 09:03 308 1 gusting 2 7.2
2015-Jan-28 08:54 315 0 gusting 6 6.7
2015-Jan-28 08:43 317 2 gusting 2 7.2
2015-Jan-28 08:40 306 2 gusting 4 6.7
2015-Jan-28 08:33 300 2 gusting 2 6.7
2015-Jan-28 08:24 340 3 gusting 6 6.7
2015-Jan-28 08:13 325 0 6.7
2015-Jan-28 08:10 325 1 gusting 3 6.7
2015-Jan-28 08:03 325 2 6.7
2015-Jan-28 07:53 318 2 gusting 2 6.7
2015-Jan-28 07:43 331 1 gusting 0 6.7
2015-Jan-28 07:37 317 1 gusting 3 6.1
2015-Jan-28 07:33 318 2 gusting 2 6.7
2015-Jan-28 07:23 309 2 gusting 4 6.7
2015-Jan-28 07:13 304 1 gusting 2 6.1
2015-Jan-28 07:07 310 1 gusting 4 6.1
2015-Jan-28 07:03 312 2 gusting 2 6.1
2015-Jan-28 06:53 253 1 gusting 2 6.1
2015-Jan-28 05:43 249 6.1
2015-Jan-28 05:35 299 5.6
2015-Jan-28 05:23 311 2 gusting 4 5.6
2015-Jan-28 05:19 323 2 gusting 5 5.6
2015-Jan-28 05:13 317 0 gusting 1 5.6
2015-Jan-28 05:05 341 5.6
2015-Jan-28 04:53 340 5.6
2015-Jan-28 04:49 340 5.6
2015-Jan-28 04:43 340 5.6
2015-Jan-28 04:34 340 5.6
2015-Jan-28 04:23 340 5.6
2015-Jan-28 04:19 340 5.6
2015-Jan-28 04:13 340 5.6
2015-Jan-28 04:04 340 5.6
2015-Jan-28 03:53 340 2 gusting 2 5.6
2015-Jan-28 03:48 311 1 gusting 8 5.6
2015-Jan-28 03:43 355 2 gusting 2 5.6
2015-Jan-28 03:33 331 5 gusting 4 5.6
2015-Jan-28 03:23 313 6 gusting 5 5.0
2015-Jan-28 03:18 327 6 gusting 8 4.4
2015-Jan-28 03:13 328 4 gusting 4 4.4
2015-Jan-28 03:03 307 2 gusting 5 4.4
2015-Jan-28 02:53 286 1 gusting 2 4.4
2015-Jan-28 02:47 285 3.9
2015-Jan-28 02:43 317 1 gusting 0 4.4
2015-Jan-28 02:33 319 2 gusting 2 3.9
2015-Jan-28 02:23 317 2 gusting 4 3.9
2015-Jan-28 02:17 312 3 gusting 8 3.9
2015-Jan-28 02:13 308 4 gusting 6 3.9
2015-Jan-28 02:03 292 2 gusting 6 4.4
2015-Jan-28 01:53 289 4 gusting 5 4.4
2015-Jan-28 01:47 312 4 gusting 9 3.9
2015-Jan-28 01:43 324 6 gusting 6 4.4
2015-Jan-28 01:33 315 6 gusting 6 4.4
2015-Jan-28 01:31 311 6 gusting 9 4.4
2015-Jan-28 01:23 307 2 gusting 4 4.4
2015-Jan-28 01:15 300 3 gusting 6 4.4
2015-Jan-28 01:03 296 4 gusting 6 4.4
2015-Jan-28 01:01 307 4 gusting 7 4.4
2015-Jan-28 00:53 296 2 gusting 2 4.4
2015-Jan-28 00:45 314 1 gusting 7 4.4
2015-Jan-28 00:33 302 4 gusting 6 5.0
2015-Jan-28 00:30 300 2 gusting 6 4.4
2015-Jan-28 00:23 299 4 gusting 4 5.0
2015-Jan-28 00:14 307 3 gusting 9 4.4
2015-Jan-28 00:03 317 4 gusting 6 5.0
2015-Jan-27 23:59 304 4 gusting 7 4.4
2015-Jan-27 23:53 316 4 gusting 7 5.0
2015-Jan-27 23:44 298 3 gusting 7 4.4
2015-Jan-27 23:33 305 1 gusting 0 5.0
2015-Jan-27 23:29 305 0 gusting 3 4.4
2015-Jan-27 23:23 306 0 gusting 2 5.0
2015-Jan-27 23:14 306 1 gusting 3 5.0
2015-Jan-27 23:03 306 2 gusting 2 5.0
2015-Jan-27 22:58 305 1 gusting 5 5.0
2015-Jan-27 22:53 297 1 gusting 2 5.6
2015-Jan-27 22:43 303 1 gusting 2 5.6
2015-Jan-27 22:33 295 0 gusting 2 5.6
2015-Jan-27 22:27 295 5.6
2015-Jan-27 22:23 295 0 5.6
2015-Jan-27 22:13 295 1 5.6
2015-Jan-27 22:03 321 0 gusting 4 5.6
2015-Jan-27 21:58 322 0 gusting 4 5.6
2015-Jan-27 21:53 307 0 gusting 1 5.6
2015-Jan-27 21:43 309 6.1
2015-Jan-27 21:33 309 6.1
2015-Jan-27 21:26 309 5.6
2015-Jan-27 21:23 309 0 gusting 0 6.1
2015-Jan-27 21:13 309 5.6
2015-Jan-27 21:03 309 0 5.6
2015-Jan-27 20:58 309 5.6
2015-Jan-27 20:53 315 6 gusting 7 5.0
2015-Jan-27 20:43 314 6 gusting 13 6.1
2015-Jan-27 20:33 351 7 gusting 14 6.1
2015-Jan-27 20:26 319 0 gusting 3 5.6
2015-Jan-27 20:23 6.1
2015-Jan-27 20:13 6.1
2015-Jan-27 20:03 6.1
2015-Jan-27 19:56 309 3 gusting 6 6.1
2015-Jan-27 19:53 300 2 gusting 2 6.1
2015-Jan-27 19:43 300 2 gusting 2 6.1
2015-Jan-27 19:40 299 2 gusting 5 6.1
2015-Jan-27 19:33 315 11 gusting 14 6.7
2015-Jan-27 19:26 304 3 gusting 7 6.1
2015-Jan-27 19:13 319 1 gusting 2 6.7
2015-Jan-27 19:10 310 4 gusting 9 6.1
2015-Jan-27 19:03 319 1 gusting 2 6.7
2015-Jan-27 18:55 304 2 gusting 6 6.1
2015-Jan-27 18:43 319 1 gusting 2 6.7
2015-Jan-27 18:40 303 3 gusting 6 6.1
2015-Jan-27 18:33 319 1 gusting 2 6.7
2015-Jan-27 18:27 319 1 gusting 4 6.7
2015-Jan-27 18:23 325 2 gusting 2 6.7
2015-Jan-27 18:13 315 8 gusting 11 5.0
2015-Jan-27 18:09 300 3 gusting 6 6.7
2015-Jan-27 18:03 307 2 gusting 2 6.7
2015-Jan-27 17:55 308 1 gusting 4 6.7
2015-Jan-27 17:43 294 2 gusting 0 6.7
2015-Jan-27 17:39 319 2 gusting 5 6.1
2015-Jan-27 17:33 294 2 gusting 0 6.7
2015-Jan-27 17:24 295 0 gusting 4 6.7
2015-Jan-27 17:13 288 1 gusting 2 6.7
2015-Jan-27 17:09 284 0 gusting 4 6.7
2015-Jan-27 17:03 300 1 gusting 2 6.7
2015-Jan-27 16:54 297 0 gusting 3 6.7
2015-Jan-27 16:43 297 1 7.2
2015-Jan-27 16:40 297 1 gusting 4 6.7
2015-Jan-27 16:33 296 2 gusting 2 7.2
2015-Jan-27 16:25 306 3 gusting 6 6.7
2015-Jan-27 16:13 333 4 gusting 5 7.2
2015-Jan-27 16:09 318 3 gusting 8 7.2
2015-Jan-27 16:03 324 5 gusting 7 7.2
2015-Jan-27 15:55 295 3 gusting 7 7.2
2015-Jan-27 15:39 300 2 gusting 7 7.2
2015-Jan-27 15:28 310 4 gusting 6 7.8
2015-Jan-27 15:23 300 3 gusting 8 7.2
2015-Jan-27 15:18 310 4 gusting 6 7.8
2015-Jan-27 15:08 309 4 gusting 4 7.8
2015-Jan-27 14:58 316 4 gusting 4 7.8
2015-Jan-27 14:53 321 4 gusting 9 7.8
2015-Jan-27 14:48 301 4 gusting 6 8.3
2015-Jan-27 14:38 292 2 gusting 2 8.3
2015-Jan-27 14:28 342 2 gusting 2 7.8
2015-Jan-27 14:21 321 3 gusting 8 7.8
2015-Jan-27 14:18 318 2 gusting 7 8.3
2015-Jan-27 14:09 326 3 gusting 7 7.8
2015-Jan-27 13:58 297 4 gusting 6 8.3
2015-Jan-27 13:51 303 3 gusting 9 7.8
2015-Jan-27 13:48 299 4 gusting 6 8.3
2015-Jan-27 13:38 323 2 gusting 5 8.3
2015-Jan-27 13:36 327 4 gusting 8 8.3
2015-Jan-27 13:28 310 4 gusting 4 8.3
2015-Jan-27 13:20 318 4 gusting 8 7.8
2015-Jan-27 13:08 296 4 gusting 4 7.8
2015-Jan-27 13:06 298 2 gusting 8 7.2
2015-Jan-27 12:58 298 2 gusting 6 7.8
2015-Jan-27 12:50 273 2 gusting 7 7.2
2015-Jan-27 12:38 313 2 gusting 2 7.8
2015-Jan-27 12:35 319 3 gusting 9 7.2
2015-Jan-27 12:28 337 4 gusting 2 7.8
2015-Jan-27 12:19 304 4 gusting 12 7.2
2015-Jan-27 12:08 320 5 gusting 5 7.8
2015-Jan-27 12:05 300 3 gusting 8 7.2
2015-Jan-27 11:58 323 4 gusting 7 7.8
2015-Jan-27 11:49 300 5 gusting 7 7.2
2015-Jan-27 11:38 318 2 gusting 5 7.8
2015-Jan-27 11:34 313 3 gusting 6 7.2
2015-Jan-27 11:28 290 2 gusting 0 7.8
2015-Jan-27 11:19 296 2 gusting 6 7.2
2015-Jan-27 11:08 273 2 gusting 2 7.2
2015-Jan-27 11:04 298 3 gusting 6 7.2
2015-Jan-27 10:58 284 1 7.2
2015-Jan-27 10:48 296 2 gusting 2 7.2
2015-Jan-27 10:38 300 1 gusting 2 7.2
2015-Jan-27 10:33 302 1 gusting 5 6.7
2015-Jan-27 10:28 321 2 gusting 0 6.7
2015-Jan-27 10:19 321 2 gusting 6 6.1
2015-Jan-27 10:08 311 2 gusting 4 6.1
2015-Jan-27 10:02 313 3 gusting 6 6.1
2015-Jan-27 09:58 328 4 gusting 6 6.1
2015-Jan-27 09:48 319 4 gusting 5 6.1
2015-Jan-27 09:38 309 2 gusting 6 5.6
2015-Jan-27 09:31 294 3 gusting 6 5.6
2015-Jan-27 09:28 299 2 gusting 6 5.6
2015-Jan-27 09:18 286 2 gusting 2 5.6
2015-Jan-27 09:08 319 2 gusting 5 6.1
2015-Jan-27 09:01 310 2 gusting 6 5.6
2015-Jan-27 08:58 281 1 gusting 1 6.1
2015-Jan-27 08:48 287 2 gusting 0 6.1
2015-Jan-27 08:45 291 2 gusting 6 5.6
2015-Jan-27 08:38 301 2 gusting 2 5.6
2015-Jan-27 08:30 303 1 gusting 6 5.6
2015-Jan-27 08:18 311 4 gusting 2 5.6
2015-Jan-27 08:15 331 3 gusting 7 5.6
2015-Jan-27 08:08 304 4 gusting 6 5.6
2015-Jan-27 08:00 305 4 gusting 6 5.0
2015-Jan-27 07:48 314 4 gusting 2 5.0
2015-Jan-27 07:45 315 3 gusting 6 5.0
2015-Jan-27 07:38 292 4 gusting 6 5.0
2015-Jan-27 07:30 316 4 gusting 8 5.0
2015-Jan-27 07:18 309 2 gusting 4 5.0
2015-Jan-27 07:15 291 3 gusting 6 5.0
2015-Jan-27 07:08 295 4 gusting 4 5.0
2015-Jan-27 06:59 296 3 gusting 6 5.0
2015-Jan-27 06:48 302 2 gusting 2 5.0
2015-Jan-27 06:44 300 2 gusting 6 5.0
2015-Jan-27 05:48 307 2 gusting 4 5.0
2015-Jan-27 05:45 294 1 gusting 6 4.4
2015-Jan-27 05:38 306 2 gusting 4 5.0
2015-Jan-27 05:28 306 2 gusting 6 5.0
2015-Jan-27 05:18 292 2 gusting 2 5.0
2015-Jan-27 05:12 298 1 gusting 7 4.4
2015-Jan-27 05:08 296 2 gusting 2 5.0
2015-Jan-27 04:58 308 2 gusting 2 5.0
2015-Jan-27 04:48 322 2 gusting 5 5.0
2015-Jan-27 04:41 300 1 gusting 6 4.4
2015-Jan-27 04:38 292 2 gusting 2 5.0
2015-Jan-27 04:28 306 5 gusting 4 5.0
2015-Jan-27 04:18 288 5 gusting 2 5.0
2015-Jan-27 04:12 283 6 gusting 9 4.4
2015-Jan-27 04:08 306 6 gusting 6 5.0
2015-Jan-27 03:58 320 6 gusting 8 5.0
2015-Jan-27 03:56 307 6 gusting 10 4.4
2015-Jan-27 03:48 320 5 gusting 8 5.0
2015-Jan-27 03:41 297 3 gusting 9 5.0
2015-Jan-27 03:28 300 5 gusting 6 5.0
2015-Jan-27 03:26 302 5 gusting 9 5.0
2015-Jan-27 03:18 297 4 gusting 2 5.6
2015-Jan-27 03:10 355 3 gusting 7 5.0
2015-Jan-27 02:58 326 5 gusting 4 5.0
2015-Jan-27 02:54 329 4 gusting 9 5.0
2015-Jan-27 02:48 330 6 gusting 8 5.0
2015-Jan-27 02:39 345 6 gusting 10 4.4
2015-Jan-27 02:28 333 6 gusting 4 5.0
2015-Jan-27 02:24 312 6 gusting 13 4.4
2015-Jan-27 02:18 317 7 gusting 10 5.0
2015-Jan-27 02:10 315 7 gusting 12 4.4
2015-Jan-27 01:58 328 5 gusting 10 5.0
2015-Jan-27 01:55 312 4 gusting 10 4.4
2015-Jan-27 01:48 327 6 gusting 10 5.0
2015-Jan-27 01:39 329 6 gusting 10 4.4
2015-Jan-27 01:28 319 6 gusting 8 5.0
2015-Jan-27 01:23 297 6 gusting 10 4.4
2015-Jan-27 01:18 298 6 gusting 6 5.0
2015-Jan-27 01:08 314 5 gusting 5 5.0
2015-Jan-27 00:58 317 7 gusting 6 5.0
2015-Jan-27 00:53 311 6 gusting 10 5.0
2015-Jan-27 00:48 304 6 gusting 8 5.0
2015-Jan-27 00:38 341 6 gusting 7 5.0
2015-Jan-27 00:28 310 6 gusting 12 5.0
2015-Jan-27 00:23 331 4 gusting 9 5.0
2015-Jan-27 00:18 318 4 gusting 4 5.0
2015-Jan-27 00:08 334 6 gusting 6 5.0
2015-Jan-26 23:58 306 6 gusting 10 5.0
2015-Jan-26 23:51 305 5 gusting 11 4.4
2015-Jan-26 23:48 313 6 gusting 6 5.0
2015-Jan-26 23:38 302 5 gusting 4 5.0
2015-Jan-26 23:28 294 5 gusting 2 5.0
2015-Jan-26 23:21 313 6 gusting 11 5.0
2015-Jan-26 23:18 337 7 gusting 6 5.0
2015-Jan-26 23:08 298 6 gusting 7 5.0
2015-Jan-26 23:06 338 6 gusting 11 5.0
2015-Jan-26 22:58 304 6 gusting 7 5.0
2015-Jan-26 22:51 294 6 gusting 10 5.0
2015-Jan-26 22:38 299 6 gusting 7 5.0
2015-Jan-26 22:35 315 5 gusting 11 5.0
2015-Jan-26 22:19 298 7 gusting 11 5.0
2015-Jan-26 22:08 315 6 gusting 10 5.0
2015-Jan-26 22:04 336 6 gusting 12 5.0
2015-Jan-26 21:58 289 5 gusting 8 5.6
2015-Jan-26 21:49 304 4 gusting 8 5.0
2015-Jan-26 21:38 311 6 gusting 5 5.6
2015-Jan-26 21:34 321 5 gusting 10 5.0
2015-Jan-26 21:28 323 6 gusting 8 5.6
2015-Jan-26 21:19 338 5 gusting 11 5.0
2015-Jan-26 21:08 324 6 gusting 10 5.6
2015-Jan-26 21:04 315 6 gusting 11 5.0
2015-Jan-26 20:58 327 6 gusting 5 5.6
2015-Jan-26 20:49 331 5 gusting 10 5.0
2015-Jan-26 20:38 309 4 gusting 6 5.0
2015-Jan-26 20:34 324 3 gusting 7 5.0
2015-Jan-26 20:28 307 4 gusting 2 5.0
2015-Jan-26 20:18 307 5 gusting 4 5.0
2015-Jan-26 20:08 316 6 gusting 6 5.0
2015-Jan-26 20:03 314 5 gusting 11 5.0
2015-Jan-26 19:58 323 6 gusting 8 5.0
2015-Jan-26 19:48 288 5 gusting 6 5.6
2015-Jan-26 19:38 300 6 gusting 8 5.6
2015-Jan-26 19:32 321 6 gusting 10 5.0
2015-Jan-26 19:28 345 6 gusting 4 5.6
2015-Jan-26 19:18 324 5 gusting 5 5.6
2015-Jan-26 19:08 313 6 gusting 6 5.0
2015-Jan-26 19:01 323 5 gusting 9 5.0
2015-Jan-26 18:58 308 6 gusting 7 5.0
2015-Jan-26 18:48 307 5 gusting 4 5.0
2015-Jan-26 18:38 304 2 gusting 6 5.6
2015-Jan-26 18:32 295 2 gusting 8 5.0
2015-Jan-26 18:28 298 5 gusting 6 5.6
2015-Jan-26 18:18 317 6 gusting 7 5.0
2015-Jan-26 18:08 296 6 gusting 6 5.0
2015-Jan-26 18:00 306 6 gusting 9 5.0
2015-Jan-26 17:48 295 7 gusting 8 5.0
2015-Jan-26 17:38 326 7 gusting 10 5.0
2015-Jan-26 17:30 342 8 gusting 13 5.0
2015-Jan-26 17:18 305 6 gusting 8 5.6
2015-Jan-26 17:16 326 5 gusting 11 5.0
2015-Jan-26 17:08 298 5 gusting 2 5.0
2015-Jan-26 17:00 316 4 gusting 9 5.0
2015-Jan-26 16:48 319 6 gusting 6 5.0
2015-Jan-26 16:44 346 4 gusting 11 5.0
2015-Jan-26 16:38 312 6 gusting 8 5.0
2015-Jan-26 16:29 344 6 gusting 11 5.0
2015-Jan-26 16:18 327 6 gusting 7 5.0
2015-Jan-26 16:15 314 6 gusting 12 5.0
2015-Jan-26 16:08 335 6 gusting 11 5.0
2015-Jan-26 15:59 338 6 gusting 10 5.0
2015-Jan-26 15:48 344 7 gusting 10 5.0
2015-Jan-26 15:44 316 6 gusting 14 5.0
2015-Jan-26 15:38 310 6 gusting 6 5.0
2015-Jan-26 15:28 310 10 gusting 7 5.6
2015-Jan-26 15:18 322 7 gusting 11 5.6
2015-Jan-26 15:14 333 6 gusting 14 5.0
2015-Jan-26 15:08 304 6 gusting 4 5.6
2015-Jan-26 14:59 317 5 gusting 15 5.0
2015-Jan-26 14:48 314 6 gusting 13 5.6
2015-Jan-26 14:42 288 6 gusting 12 5.6
2015-Jan-26 14:38 285 6 gusting 7 6.1
2015-Jan-26 14:28 309 4 gusting 10 6.1
2015-Jan-26 14:18 313 6 gusting 6 6.1
2015-Jan-26 14:11 275 6 gusting 11 5.6
2015-Jan-26 14:08 305 6 gusting 10 6.1
2015-Jan-26 13:58 288 6 gusting 10 6.1
2015-Jan-26 13:48 315 7 gusting 8 6.1
2015-Jan-26 13:42 333 6 gusting 13 6.1
2015-Jan-26 13:38 320 6 gusting 10 6.1
2015-Jan-26 13:28 305 5 gusting 6 6.1
2015-Jan-26 13:18 331 6 gusting 5 6.1
2015-Jan-26 13:11 295 5 gusting 11 6.1
2015-Jan-26 13:08 347 6 gusting 4 6.1
2015-Jan-26 12:58 320 7 gusting 10 6.1
2015-Jan-26 12:55 329 7 gusting 11 6.1
2015-Jan-26 12:48 310 6 gusting 11 6.1
2015-Jan-26 12:40 266 6 gusting 11 6.1
2015-Jan-26 12:28 305 6 gusting 8 6.7
2015-Jan-26 12:25 327 5 gusting 13 6.1
2015-Jan-26 12:18 337 7 gusting 8 6.7
2015-Jan-26 12:09 336 7 gusting 13 6.1